Regional Weather Roundup
Issued by NWS

Home | Current Version | Previous Version | Graphics & Text | Print | Product List | Glossary Off
Versions: 1 2 3 4 5 6 7 8 9 10 11 12 13 14 15 16 17 18 19 20 21 22 23 24 25 26 27 28 29 30 31 32 33 34 35 36 37 38 39 40 41 42 43 44 45 46 47 48 49 50

501
ASUS44 KJAN 310710
RWRMS

MISSISSIPPI HOURLY WEATHER ROUNDUP
NATIONAL WEATHER SERVICE JACKSON MS
200 AM CDT THU JUL 31 2014

NOTE: "FAIR: INDICATES FEW OR NO CLOUDS BELOW 12,000 FEET WITH NO
SIGNIFICANT WEATHER AND/OR OBSTRUCTIONS TO VISIBILITY.

MSZ001>002-007>008-010>013-018>021-025>028-034>036-310800-
NORTHWEST MISSISSIPPI

CITY           SKY/WX    TMP DP  RH WIND       PRES   REMARKS
CLARKSDALE     CLOUDY    70  70 100 N7        30.07S
CLEVELAND      CLOUDY    71  69  95 NE5       30.04F
GREENWOOD      CLOUDY    70  67  90 CALM      30.05F
GREENVILLE     LGT RAIN  71  69  93 NW3       30.04S
GRENADA        FAIR      68  64  88 CALM      30.06F
OLIVE BRANCH   CLOUDY    68  68 100 CALM      30.08F
OXFORD         LGT RAIN  68  64  88 CALM      30.09S
TUNICA         DRIZZLE   70  68  94 N3        30.08S
$$

MSZ003>006-009-014>017-022>024-029>033-037>039-310800-
NORTHEAST MISSISSIPPI

CITY           SKY/WX    TMP DP  RH WIND       PRES   REMARKS
BELMONT        DRIZZLE   67  65  90 CALM      30.08S
COLUMBUS AFB   CLOUDY    69  64  84 N2        30.06R
CORINTH        PTSUNNY   68  66  94 CALM      30.07S
GOLDN TRIANGLE CLOUDY    70  63  78 NW3       30.07R
STARKVILLE     FAIR      68  63  83 CALM      30.06S
TUPELO         CLOUDY    72  64  76 NE3       30.07S
$$

MSZ040-058-310800-
CENTRAL MISSISSIPPI

CITY           SKY/WX    TMP DP  RH WIND       PRES   REMARKS
JACKSON INTL   MOCLDY    71  62  73 CALM      30.04F
JACKSON HAWKNS MOCLDY    73  60  63 CALM      30.04F
MERIDIAN KEY   CLOUDY    66  61  84 CALM      30.05S
MERIDIAN NAS   MOCLDY    67  62  84 NW3       30.05S
RAYMOND        FAIR      68  64  88 CALM      30.04S
VICKSBURG      CLOUDY    73  64  73 NE5       30.03F
$$

MSZ059>079-310800-
SOUTH MISSISSIPPI

CITY           SKY/WX    TMP DP  RH WIND       PRES   REMARKS
BROOKHAVEN     FAIR      70  63  78 CALM      30.05F
COLUMBIA       FAIR      64  64 100 CALM      30.02F
HATTIESBURG    PTCLDY    66  63  90 CALM      30.04F
MCCOMB         CLOUDY    72  60  66 NE3       30.03F
NATCHEZ        CLOUDY    72  63  73 E3        30.03F
PINE BELT      PTCLDY    64  61  88 CALM      30.05S
$$

MSZ080>082-310800-
COASTAL MISSISSIPPI

CITY           SKY/WX    TMP DP  RH WIND       PRES   REMARKS
BILOXI         CLEAR     69  63  79 NE3       30.01F
PASCAGOULA     CLEAR     63  62  97 CALM      30.01F
GULFPORT       CLEAR     72  62  71 CALM      30.00F
$$



USA.gov is the U.S. government's official web portal to all federal, state and local government web resources and services.